This demonstration page uses our WeatherBlox Daily Observations layout. Learn more.

Left ArrowRight Arrow

Hourly Observations for May 25, 2021

Temp ( °F °C ) Dew Point ( °F °C ) Humidity (%) Winds ( mph kmh ) Pressure ( in mb ) Visibility ( mi km ) Precip ( " mm )
12:53 am 00:53 Clear 67 19.4 64 17.8 91 91 N N/A 30.13 1020 8 13 N/A
1:53 am 01:53 Clear 64 17.8 62 16.7 93 93 N N/A 30.13 1020 7 11 N/A
2:53 am 02:53 Clear with Mist and Fog 64 17.8 63 17.2 96 96 N N/A 30.12 1020 5 8 N/A
3:53 am 03:53 Clear with Mist and Fog 63 17.2 62 16.7 97 97 N N/A 30.12 1020 3 5 N/A
4:41 am 04:41 Clear with Mist and Fog 62 16.7 61 16.1 96 96 N N/A 30.12 1020 2 2 N/A
4:53 am 04:53 Clear with Mist and Fog 62 16.7 61 16.1 96 96 N N/A 30.12 1020 3 5 N/A
5:10 am 05:10 Clear with Mist and Fog 62 16.7 60 15.6 93 93 N N/A 30.12 1020 2 3 N/A
5:20 am 05:20 Clear with Mist and Fog 61 16.1 60 15.6 97 97 N N/A 30.13 1020 6 10 N/A
5:47 am 05:47 Clear with Mist and Fog 61 16 61 16 100 100 N N/A 30.13 1020 2 3 N/A
5:53 am 05:53 Clear with Mist and Fog 61 16.1 60 15.6 97 97 N N/A 30.12 1020 2 3 N/A
6:02 am 06:02 Clear with Mist and Fog 61 16.1 60 15.6 97 97 N N/A 30.13 1020 4 6 N/A
6:21 am 06:21 Sunny with Mist and Fog 61 16.1 60 15.6 97 97 N N/A 30.14 1021 2 3 N/A
6:38 am 06:38 Sunny with Mist and Fog 61 16.1 60 15.6 97 97 N N/A 30.14 1021 2 2 N/A
6:49 am 06:49 Sunny with Mist and Fog 61 16 61 16 100 100 N N/A 30.15 1021 2 3 N/A
6:53 am 06:53 Sunny with Mist and Fog 61 16.1 60 15.6 97 97 N N/A 30.14 1021 2 3 N/A
7:00 am 07:00 Sunny with Mist and Fog 62 16.7 61 16.1 96 96 N N/A 30.15 1021 3 4 N/A
7:07 am 07:07 Partly Cloudy with Mist and Fog 63 17.2 62 16.7 97 97 N N/A 30.15 1021 3 5 N/A
7:53 am 07:53 Sunny with Mist and Fog 67 19.4 64 17.8 91 91 N N/A 30.15 1021 4 6 N/A
8:53 am 08:53 Hazy 73 22.8 64 17.8 74 74 N N/A 30.16 1021 6 10 N/A
9:53 am 09:53 Sunny 75 23.9 66 18.9 74 74 N N/A 30.17 1022 8 13 N/A
10:53 am 10:53 Sunny 82 27.8 64 17.8 55 55 WSW 5 7 30.15 1021 10 16 N/A
11:53 am 11:53 Sunny 85 29.4 65 18.3 51 51 WSW 9 15 30.14 1021 10 16 N/A
12:53 pm 12:53 Sunny 85 29.4 62 16.7 46 46 WSW 6 9 30.14 1021 10 16 N/A
1:53 pm 13:53 Sunny 87 30.6 63 17.2 45 45 VRB 7 11 30.12 1020 9 14 N/A
2:53 pm 14:53 Partly Cloudy 87 30.6 62 16.7 43 43 VRB 7 11 30.10 1019 9 14 N/A
3:53 pm 15:53 Sunny 86 30 61 16.1 43 43 SW 8 13 30.09 1019 9 14 N/A
4:53 pm 16:53 Sunny 86 30 61 16.1 43 43 VRB 6 9 30.07 1018 9 14 N/A
5:53 pm 17:53 Sunny 85 29.4 60 15.6 43 43 VRB 7 11 30.06 1018 8 13 N/A
6:53 pm 18:53 Sunny 85 29.4 59 15 42 42 VRB 7 11 30.04 1017 10 16 N/A
7:53 pm 19:53 Sunny 83 28.3 61 16.1 48 48 VRB 5 7 30.04 1017 10 16 N/A
8:53 pm 20:53 Sunny 78 25.6 62 16.7 58 58 VRB 3 6 30.04 1017 10 16 N/A
9:53 pm 21:53 Clear 76 24.4 61 16.1 60 60 S 3 6 30.05 1018 10 16 N/A
10:53 pm 22:53 Clear 74 23.3 62 16.7 67 67 S 3 6 30.06 1018 10 16 N/A
11:53 pm 23:53 Clear 76 24.4 61 16.1 60 60 VRB 3 6 30.04 1017 10 16 N/A

Powered by AerisWeather